{"data":{"norad_id":66407,"epoch":"2026-09-20T13:35:22.054272Z","epoch_age_seconds":87362,"freshness":"FRESH","line1":"1 66407U 25257AD  26263.56622748  .00017440  00000+0  52603-3 0  9997","line2":"2 66407  53.1592  27.3184 0000903  78.8218 281.2886 15.34404343 49639","mean_motion":15.34404343,"eccentricity":9.03e-5,"inclination_deg":53.1592,"raan_deg":27.3184,"arg_perigee_deg":78.8218,"mean_anomaly_deg":281.2886,"bstar":0.00052603,"rev_number":4963,"period_min":93.847492453298,"perigee_km":462.07260521823,"apogee_km":463.30805863438,"semimajor_km":6840.8273319263,"source":"CELESTRAK","updated_at":"2026-09-21T09:00:35.905294Z"}}